* Astronomy

Members Login
Username 
 
Password 
    Remember Me  
Post Info TOPIC: Asteroid 2012 JR17


L

Posts: 131433
Date:
Asteroid 2012 JR17
Permalink  
 


Orbital elements:
2012 JR17                                                Earth MOID = 0.1201 AU
Epoch 2012 Mar. 14.0 TT = JDT 2456000.5                 MPC
M 334.01109              (2000.0)            P               Q
n   0.20685372     Peri.  190.25145     +0.79731738     +0.59514029
a   2.8315691      Node   132.74003     -0.54362149     +0.78043530
e   0.6004917      Incl.    7.86213     -0.26222256     +0.19164750
P   4.76           H   17.5           G   0.15           U   9

MPEC 2012 - K09



__________________
Page 1 of 1  sorted by
 
Quick Reply

Please log in to post quick replies.



Create your own FREE Forum
Report Abuse
Powered by ActiveBoard